Location: Bow
(51.5261°N, 0.0167°W)
Time: 22:10:54
(UTC+00:00)

USA 234 - Pass Details

Date: 18 September 2020
Orbit: 1102 x 1106 km, 123.0° (Epoch: 16 October)

Event Time Altitude Azimuth Distance (km) Brightness Sun altitude
Rises 22:00:37 0° 63° (ENE) 3,926 6.1 -31.9°
Reaches altitude 10° 22:03:06 10° 62° (ENE) 2,967 5.5 -32.1°
Enters shadow 22:03:22 11° 62° (ENE) 2,871 5.4 -32.1°
Exits shadow 22:06:55 38° 54° (NE) 1,624 4.1 -32.4°
Maximum altitude 22:09:38 74° 339° (NNW) 1,148 3.3 -32.6°
Drops below altitude 10° 22:16:09 10° 256° (WSW) 2,963 5.6 -33.2°
Sets 22:18:38 0° 254° (WSW) 3,920 6.3 -33.4°
